TimeMDT,TemperatureF,Dew PointF,Humidity,Sea Level PressureIn,VisibilityMPH,Wind Direction,Wind SpeedMPH,Gust SpeedMPH,PrecipitationIn,Events,Conditions,WindDirDegrees,DateUTC
12:53 AM,39.0,28.0,65,30.15,10.0,SSE,8.1,-,N/A,,Scattered Clouds,150,2012-11-03 06:53:00
1:53 AM,37.9,28.0,68,30.14,10.0,SSE,10.4,-,N/A,,Scattered Clouds,160,2012-11-03 07:53:00
2:53 AM,37.0,28.0,70,30.16,10.0,Calm,Calm,-,N/A,,Partly Cloudy,0,2012-11-03 08:53:00
3:53 AM,34.0,27.0,75,30.16,10.0,SSE,5.8,-,N/A,,Partly Cloudy,160,2012-11-03 09:53:00
4:53 AM,39.0,28.9,67,30.13,10.0,South,12.7,-,N/A,,Partly Cloudy,190,2012-11-03 10:53:00
5:53 AM,36.0,28.0,73,30.16,10.0,SE,4.6,-,N/A,,Partly Cloudy,130,2012-11-03 11:53:00
6:53 AM,32.0,26.1,79,30.20,10.0,WSW,4.6,-,N/A,,Partly Cloudy,240,2012-11-03 12:53:00
7:53 AM,34.0,25.0,70,30.22,10.0,SSW,4.6,-,N/A,,Partly Cloudy,200,2012-11-03 13:53:00
8:53 AM,42.1,28.0,58,30.20,10.0,SSW,3.5,-,N/A,,Partly Cloudy,210,2012-11-03 14:53:00
9:53 AM,46.9,30.0,52,30.17,10.0,South,5.8,-,N/A,,Scattered Clouds,180,2012-11-03 15:53:00
10:53 AM,53.1,27.0,37,30.15,10.0,Variable,3.5,-,N/A,,Scattered Clouds,0,2012-11-03 16:53:00
11:53 AM,57.9,27.0,31,30.12,10.0,Calm,Calm,-,N/A,,Scattered Clouds,0,2012-11-03 17:53:00
12:53 PM,57.9,27.0,31,30.11,10.0,NNE,4.6,-,N/A,,Mostly Cloudy,20,2012-11-03 18:53:00
1:53 PM,57.9,25.0,28,30.10,10.0,Calm,Calm,-,N/A,,Mostly Cloudy,0,2012-11-03 19:53:00
2:53 PM,61.0,23.0,23,30.08,10.0,NNE,5.8,-,N/A,,Scattered Clouds,20,2012-11-03 20:53:00
3:53 PM,60.1,19.9,21,30.09,10.0,Calm,Calm,-,N/A,,Mostly Cloudy,0,2012-11-03 21:53:00
4:53 PM,57.0,28.0,33,30.09,10.0,ENE,4.6,-,N/A,,Scattered Clouds,60,2012-11-03 22:53:00
5:53 PM,52.0,28.0,40,30.12,10.0,ESE,4.6,-,N/A,,Scattered Clouds,120,2012-11-03 23:53:00
6:53 PM,48.0,33.1,56,30.19,10.0,NNW,9.2,-,N/A,,Scattered Clouds,340,2012-11-04 00:53:00
7:53 PM,45.0,33.1,63,30.19,10.0,West,3.5,-,N/A,,Partly Cloudy,280,2012-11-04 01:53:00
8:53 PM,39.9,32.0,73,30.20,10.0,WSW,6.9,-,N/A,,Partly Cloudy,240,2012-11-04 02:53:00
9:53 PM,37.9,30.9,76,30.19,10.0,South,5.8,-,N/A,,Clear,190,2012-11-04 03:53:00
10:53 PM,37.9,32.0,79,30.17,10.0,South,4.6,-,N/A,,Partly Cloudy,180,2012-11-04 04:53:00
11:53 PM,37.0,30.0,76,30.15,10.0,South,6.9,-,N/A,,Partly Cloudy,180,2012-11-04 05:53:00